Terminal Aerodrome Forecast
Issued by NWS Grand Forks, ND

Home | Current Version | Previous Version | Text Only | Print | Product List | Glossary On
Versions: 1 2 3 4 5 6 7 8 9 10 11 12 13 14 15 16 17 18 19 20 21 22 23
000
FTUS43 KFGF 250200 AAA
TAFGFK
TAF AMD
KGFK 250229Z 2502/2524 12006KT 3SM BR BKN006 OVC012
     FM250400 VRB04KT 2SM BR OVC006
     FM251000 33007KT P6SM BKN015
     FM251600 35009KT P6SM BKN025=

USA.gov is the U.S. government's official web portal to all federal, state and local government web resources and services.